Time,TemperatureF,DewpointF,PressureIn,WindDirection,WindDirectionDegrees,WindSpeedMPH,WindSpeedGustMPH,Humidity,HourlyPrecipIn,Conditions,Clouds,dailyrainin,SoftwareType,DateUTC
2013-02-02 00:01:00,50.0,31.0,30.20,ESE,112,4.0,8.0,48,0.00,,,0.00,,2013-02-02 08:01:00,
2013-02-02 00:11:00,50.0,31.0,30.20,ESE,112,4.0,8.0,48,0.00,,,0.00,,2013-02-02 08:11:00,
2013-02-02 00:21:00,50.0,31.0,30.20,ESE,116,6.0,8.0,47,0.00,,,0.00,,2013-02-02 08:21:00,
2013-02-02 00:31:00,51.0,31.0,30.19,ESE,111,5.0,8.0,46,0.00,,,0.00,,2013-02-02 08:31:00,
2013-02-02 00:41:00,51.0,31.0,30.19,ESE,111,5.0,8.0,46,0.00,,,0.00,,2013-02-02 08:41:00,
2013-02-02 00:52:00,51.0,31.0,30.22,SE,124,6.0,9.0,46,0.00,,,0.00,,2013-02-02 08:52:00,
2013-02-02 01:01:00,51.0,30.0,30.22,ESE,118,6.0,9.0,45,0.00,,,0.00,,2013-02-02 09:01:00,
2013-02-02 01:11:00,51.0,30.0,30.22,ESE,118,6.0,9.0,45,0.00,,,0.00,,2013-02-02 09:11:00,
2013-02-02 01:22:00,51.0,30.0,30.21,ESE,120,6.0,11.0,44,0.00,,,0.00,,2013-02-02 09:22:00,
2013-02-02 01:31:00,51.0,29.0,30.21,ESE,116,6.0,9.0,43,0.00,,,0.00,,2013-02-02 09:31:00,
2013-02-02 01:41:00,51.0,29.0,30.21,ESE,116,6.0,9.0,43,0.00,,,0.00,,2013-02-02 09:41:00,
2013-02-02 01:52:00,51.0,29.0,30.20,SE,126,5.0,8.0,42,0.00,,,0.00,,2013-02-02 09:52:00,
2013-02-02 02:01:00,51.0,29.0,30.20,ESE,113,4.0,8.0,42,0.00,,,0.00,,2013-02-02 10:01:00,
2013-02-02 02:11:00,51.0,29.0,30.20,ESE,106,4.0,8.0,42,0.00,,,0.00,,2013-02-02 10:11:00,
2013-02-02 02:21:00,51.0,29.0,30.20,ESE,106,4.0,8.0,42,0.00,,,0.00,,2013-02-02 10:21:00,
2013-02-02 02:31:00,50.0,28.0,30.21,ESE,115,4.0,7.0,43,0.00,,,0.00,,2013-02-02 10:31:00,
2013-02-02 02:41:00,50.0,28.0,30.21,ESE,115,4.0,7.0,43,0.00,,,0.00,,2013-02-02 10:41:00,
2013-02-02 02:52:00,50.0,28.0,30.21,ESE,115,1.0,5.0,42,0.00,,,0.00,,2013-02-02 10:52:00,
2013-02-02 03:01:00,50.0,28.0,30.20,ESE,116,3.0,6.0,42,0.00,,,0.00,,2013-02-02 11:01:00,
2013-02-02 03:11:00,49.0,27.0,30.20,ESE,112,3.0,6.0,43,0.00,,,0.00,,2013-02-02 11:11:00,
2013-02-02 03:21:00,49.0,27.0,30.20,ESE,112,3.0,6.0,43,0.00,,,0.00,,2013-02-02 11:21:00,
2013-02-02 03:31:00,49.0,27.0,30.19,ESE,114,3.0,7.0,43,0.00,,,0.00,,2013-02-02 11:31:00,
2013-02-02 03:41:00,49.0,27.0,30.19,ESE,114,3.0,7.0,43,0.00,,,0.00,,2013-02-02 11:41:00,
2013-02-02 03:52:00,49.0,27.0,30.19,ESE,113,2.0,5.0,43,0.00,,,0.00,,2013-02-02 11:52:00,
2013-02-02 04:01:00,49.0,28.0,30.19,ESE,113,1.0,6.0,44,0.00,,,0.00,,2013-02-02 12:01:00,
2013-02-02 04:11:00,49.0,28.0,30.19,ESE,113,1.0,6.0,44,0.00,,,0.00,,2013-02-02 12:11:00,
2013-02-02 04:22:00,49.0,28.0,30.20,ESE,113,1.0,5.0,44,0.00,,,0.00,,2013-02-02 12:22:00,
2013-02-02 04:32:00,49.0,27.0,30.20,ESE,114,1.0,5.0,43,0.00,,,0.00,,2013-02-02 12:32:00,
2013-02-02 04:42:00,49.0,27.0,30.20,ESE,114,1.0,5.0,43,0.00,,,0.00,,2013-02-02 12:42:00,
2013-02-02 04:52:00,49.0,27.0,30.19,ESE,110,3.0,6.0,42,0.00,,,0.00,,2013-02-02 12:52:00,
2013-02-02 05:02:00,50.0,27.0,30.20,ESE,110,3.0,7.0,41,0.00,,,0.00,,2013-02-02 13:02:00,
2013-02-02 05:11:00,50.0,27.0,30.20,ESE,110,3.0,7.0,41,0.00,,,0.00,,2013-02-02 13:11:00,
2013-02-02 05:21:00,49.0,27.0,30.20,ESE,111,3.0,6.0,43,0.00,,,0.00,,2013-02-02 13:21:00,
2013-02-02 05:32:00,49.0,27.0,30.20,ESE,110,2.0,6.0,42,0.00,,,0.00,,2013-02-02 13:32:00,
2013-02-02 05:42:00,49.0,27.0,30.20,ESE,110,2.0,6.0,42,0.00,,,0.00,,2013-02-02 13:42:00,
2013-02-02 05:52:00,50.0,28.0,30.20,ESE,109,6.0,8.0,42,0.00,,,0.00,,2013-02-02 13:52:00,
2013-02-02 06:01:00,50.0,28.0,30.20,ESE,107,4.0,7.0,42,0.00,,,0.00,,2013-02-02 14:01:00,
2013-02-02 06:11:00,50.0,28.0,30.20,ESE,107,4.0,7.0,42,0.00,,,0.00,,2013-02-02 14:11:00,
2013-02-02 06:22:00,50.0,28.0,30.20,East,98,5.0,8.0,42,0.00,,,0.00,,2013-02-02 14:22:00,
2013-02-02 06:31:00,50.0,28.0,30.21,East,99,6.0,8.0,42,0.00,,,0.00,,2013-02-02 14:31:00,
2013-02-02 06:41:00,50.0,28.0,30.21,East,99,6.0,8.0,42,0.00,,,0.00,,2013-02-02 14:41:00,
2013-02-02 06:52:00,49.0,27.0,30.21,ESE,116,4.0,8.0,43,0.00,,,0.00,,2013-02-02 14:52:00,
2013-02-02 07:02:00,49.0,27.0,30.22,ESE,107,3.0,7.0,43,0.00,,,0.00,,2013-02-02 15:02:00,
2013-02-02 07:11:00,49.0,27.0,30.22,ESE,107,3.0,7.0,43,0.00,,,0.00,,2013-02-02 15:11:00,
2013-02-02 07:21:00,49.0,27.0,30.22,East,101,4.0,7.0,43,0.00,,,0.00,,2013-02-02 15:21:00,
2013-02-02 07:32:00,50.0,28.0,30.22,East,92,3.0,8.0,43,0.00,,,0.00,,2013-02-02 15:32:00,
2013-02-02 07:41:00,50.0,28.0,30.22,East,92,3.0,8.0,43,0.00,,,0.00,,2013-02-02 15:41:00,
2013-02-02 07:52:00,50.0,29.0,30.22,ESE,108,4.0,8.0,44,0.00,,,0.00,,2013-02-02 15:52:00,
2013-02-02 08:01:00,52.0,30.0,30.22,ESE,111,5.0,9.0,43,0.00,,,0.00,,2013-02-02 16:01:00,
2013-02-02 08:21:00,54.0,30.0,30.23,East,86,7.0,11.0,40,0.00,,,0.00,,2013-02-02 16:21:00,
2013-02-02 08:31:00,54.0,30.0,30.23,East,99,7.0,11.0,40,0.00,,,0.00,,2013-02-02 16:31:00,
2013-02-02 08:42:00,54.0,30.0,30.23,East,99,7.0,11.0,40,0.00,,,0.00,,2013-02-02 16:42:00,
2013-02-02 08:52:00,55.0,31.0,30.24,East,81,6.0,10.0,40,0.00,,,0.00,,2013-02-02 16:52:00,
2013-02-02 09:01:00,56.0,32.0,30.24,East,80,7.0,11.0,40,0.00,,,0.00,,2013-02-02 17:01:00,
2013-02-02 09:21:00,56.0,32.0,30.24,East,80,7.0,11.0,40,0.00,,,0.00,,2013-02-02 17:21:00,
2013-02-02 09:31:00,56.0,32.0,30.24,East,80,7.0,13.0,40,0.00,,,0.00,,2013-02-02 17:31:00,
2013-02-02 09:41:00,56.0,32.0,30.24,East,80,7.0,13.0,40,0.00,,,0.00,,2013-02-02 17:41:00,
2013-02-02 09:52:00,56.0,32.0,30.24,East,79,7.0,13.0,40,0.00,,,0.00,,2013-02-02 17:52:00,
2013-02-02 10:01:00,55.0,31.0,30.24,East,81,11.0,14.0,39,0.00,,,0.00,,2013-02-02 18:01:00,
2013-02-02 10:11:00,55.0,31.0,30.24,East,81,11.0,14.0,39,0.00,,,0.00,,2013-02-02 18:11:00,
2013-02-02 10:21:00,56.0,31.0,30.24,East,82,10.0,14.0,39,0.00,,,0.00,,2013-02-02 18:21:00,
2013-02-02 10:31:00,57.0,33.0,30.24,East,81,10.0,15.0,40,0.00,,,0.00,,2013-02-02 18:31:00,
2013-02-02 10:41:00,57.0,33.0,30.24,East,81,10.0,15.0,40,0.00,,,0.00,,2013-02-02 18:41:00,
2013-02-02 10:52:00,56.0,32.0,30.23,East,82,11.0,15.0,40,0.00,,,0.00,,2013-02-02 18:52:00,
2013-02-02 11:01:00,58.0,33.0,30.23,ENE,76,11.0,15.0,38,0.00,,,0.00,,2013-02-02 19:01:00,
2013-02-02 11:11:00,58.0,33.0,30.23,ENE,73,9.0,15.0,38,0.00,,,0.00,,2013-02-02 19:11:00,
2013-02-02 11:21:00,58.0,33.0,30.23,ENE,73,9.0,15.0,38,0.00,,,0.00,,2013-02-02 19:21:00,
2013-02-02 11:31:00,59.0,33.0,30.22,East,87,11.0,16.0,38,0.00,,,0.00,,2013-02-02 19:31:00,
2013-02-02 11:41:00,59.0,33.0,30.22,East,87,11.0,16.0,38,0.00,,,0.00,,2013-02-02 19:41:00,
2013-02-02 11:52:00,60.0,34.0,30.22,East,85,8.0,17.0,37,0.00,,,0.00,,2013-02-02 19:52:00,
2013-02-02 12:01:00,60.0,34.0,30.22,ENE,77,10.0,20.0,37,0.00,,,0.00,,2013-02-02 20:01:00,
2013-02-02 12:21:00,60.0,34.0,30.20,East,92,10.0,18.0,37,0.00,,,0.00,,2013-02-02 20:21:00,
2013-02-02 12:31:00,61.0,34.0,30.20,ESE,109,9.0,15.0,36,0.00,,,0.00,,2013-02-02 20:31:00,
2013-02-02 12:41:00,61.0,34.0,30.20,ESE,109,9.0,15.0,36,0.00,,,0.00,,2013-02-02 20:41:00,
2013-02-02 12:52:00,62.0,33.0,30.19,ESE,108,12.0,16.0,34,0.00,,,0.00,,2013-02-02 20:52:00,
2013-02-02 13:01:00,62.0,34.0,30.19,ESE,118,10.0,16.0,35,0.00,,,0.00,,2013-02-02 21:01:00,
2013-02-02 13:21:00,62.0,33.0,30.18,East,90,8.0,15.0,34,0.00,,,0.00,,2013-02-02 21:21:00,
2013-02-02 13:32:00,61.0,33.0,30.17,ESE,103,10.0,14.0,35,0.00,,,0.00,,2013-02-02 21:32:00,
2013-02-02 13:42:00,61.0,33.0,30.17,ESE,103,10.0,14.0,35,0.00,,,0.00,,2013-02-02 21:42:00,
2013-02-02 13:52:00,62.0,33.0,30.17,East,93,10.0,15.0,33,0.00,,,0.00,,2013-02-02 21:52:00,
2013-02-02 14:01:00,61.0,32.0,30.16,ESE,106,10.0,15.0,34,0.00,,,0.00,,2013-02-02 22:01:00,
2013-02-02 14:11:00,61.0,32.0,30.16,ESE,106,10.0,15.0,34,0.00,,,0.00,,2013-02-02 22:11:00,
2013-02-02 14:21:00,60.0,33.0,30.16,East,99,6.0,14.0,36,0.00,,,0.00,,2013-02-02 22:21:00,
2013-02-02 14:32:00,60.0,32.0,30.16,East,96,7.0,12.0,35,0.00,,,0.00,,2013-02-02 22:32:00,
2013-02-02 14:41:00,60.0,32.0,30.16,East,96,7.0,12.0,35,0.00,,,0.00,,2013-02-02 22:41:00,
2013-02-02 14:52:00,59.0,31.0,30.16,East,97,8.0,13.0,34,0.00,,,0.00,,2013-02-02 22:52:00,
2013-02-02 15:01:00,59.0,32.0,30.16,ESE,102,6.0,12.0,36,0.00,,,0.00,,2013-02-02 23:01:00,
2013-02-02 15:11:00,59.0,32.0,30.16,ESE,102,6.0,12.0,36,0.00,,,0.00,,2013-02-02 23:11:00,
2013-02-02 15:21:00,58.0,31.0,30.16,East,81,6.0,11.0,35,0.00,,,0.00,,2013-02-02 23:21:00,
2013-02-02 15:32:00,58.0,32.0,30.16,East,81,4.0,7.0,37,0.00,,,0.00,,2013-02-02 23:32:00,
2013-02-02 15:41:00,58.0,32.0,30.16,East,81,4.0,7.0,37,0.00,,,0.00,,2013-02-02 23:41:00,
2013-02-02 15:52:00,58.0,31.0,30.16,East,96,5.0,8.0,36,0.00,,,0.00,,2013-02-02 23:52:00,
2013-02-02 16:01:00,57.0,31.0,30.16,East,98,4.0,8.0,37,0.00,,,0.00,,2013-02-03 00:01:00,
2013-02-02 16:11:00,57.0,31.0,30.16,East,98,4.0,8.0,37,0.00,,,0.00,,2013-02-03 00:11:00,
2013-02-02 16:21:00,56.0,30.0,30.17,ENE,73,4.0,7.0,37,0.00,,,0.00,,2013-02-03 00:21:00,
2013-02-02 16:31:00,56.0,31.0,30.16,East,80,4.0,7.0,38,0.00,,,0.00,,2013-02-03 00:31:00,
2013-02-02 16:41:00,56.0,31.0,30.16,East,80,4.0,7.0,38,0.00,,,0.00,,2013-02-03 00:41:00,
2013-02-02 16:51:00,56.0,30.0,30.16,East,84,5.0,8.0,37,0.00,,,0.00,,2013-02-03 00:51:00,
2013-02-02 17:01:00,55.0,30.0,30.17,East,91,2.0,7.0,38,0.00,,,0.00,,2013-02-03 01:01:00,
2013-02-02 17:11:00,55.0,31.0,30.16,East,92,3.0,6.0,40,0.00,,,0.00,,2013-02-03 01:11:00,
2013-02-02 17:21:00,55.0,31.0,30.16,East,92,3.0,6.0,40,0.00,,,0.00,,2013-02-03 01:21:00,
2013-02-02 17:32:00,54.0,30.0,30.16,East,93,1.0,6.0,40,0.00,,,0.00,,2013-02-03 01:32:00,
2013-02-02 17:41:00,54.0,30.0,30.16,East,93,1.0,6.0,40,0.00,,,0.00,,2013-02-03 01:41:00,
2013-02-02 17:52:00,54.0,30.0,30.16,ESE,114,2.0,7.0,40,0.00,,,0.00,,2013-02-03 01:52:00,
2013-02-02 18:01:00,54.0,30.0,30.16,ESE,114,2.0,6.0,39,0.00,,,0.00,,2013-02-03 02:01:00,
2013-02-02 18:11:00,54.0,30.0,30.16,ESE,114,2.0,6.0,39,0.00,,,0.00,,2013-02-03 02:11:00,
2013-02-02 18:21:00,54.0,30.0,30.17,ESE,114,1.0,2.0,40,0.00,,,0.00,,2013-02-03 02:21:00,
2013-02-02 18:31:00,53.0,29.0,30.17,North,0,0.0,2.0,39,0.00,,,0.00,,2013-02-03 02:31:00,
2013-02-02 18:41:00,53.0,29.0,30.17,North,0,0.0,2.0,39,0.00,,,0.00,,2013-02-03 02:41:00,
2013-02-02 18:52:00,54.0,30.0,30.17,North,0,0.0,0.0,40,0.00,,,0.00,,2013-02-03 02:52:00,
2013-02-02 19:01:00,54.0,30.0,30.18,North,0,0.0,0.0,39,0.00,,,0.00,,2013-02-03 03:01:00,
2013-02-02 19:11:00,54.0,28.0,30.18,North,0,0.0,0.0,37,0.00,,,0.00,,2013-02-03 03:11:00,
2013-02-02 19:21:00,54.0,28.0,30.18,North,0,0.0,0.0,37,0.00,,,0.00,,2013-02-03 03:21:00,
2013-02-02 19:31:00,54.0,28.0,30.18,North,0,0.0,0.0,36,0.00,,,0.00,,2013-02-03 03:31:00,
2013-02-02 19:41:00,54.0,28.0,30.18,North,0,0.0,0.0,36,0.00,,,0.00,,2013-02-03 03:41:00,
2013-02-02 19:51:00,54.0,28.0,30.18,North,0,0.0,0.0,37,0.00,,,0.00,,2013-02-03 03:51:00,
2013-02-02 20:01:00,54.0,30.0,30.18,North,0,0.0,0.0,40,0.00,,,0.00,,2013-02-03 04:01:00,
2013-02-02 20:11:00,54.0,29.0,30.19,North,0,0.0,0.0,38,0.00,,,0.00,,2013-02-03 04:11:00,
2013-02-02 20:21:00,54.0,29.0,30.19,North,0,0.0,0.0,38,0.00,,,0.00,,2013-02-03 04:21:00,
2013-02-02 20:31:00,54.0,34.0,30.19,SSW,207,1.0,4.0,46,0.00,,,0.00,,2013-02-03 04:31:00,
2013-02-02 20:42:00,54.0,34.0,30.19,SSW,207,1.0,4.0,46,0.00,,,0.00,,2013-02-03 04:42:00,
2013-02-02 20:52:00,54.0,35.0,30.19,West,271,1.0,4.0,48,0.00,,,0.00,,2013-02-03 04:52:00,
2013-02-02 21:02:00,54.0,35.0,30.19,West,271,2.0,3.0,48,0.00,,,0.00,,2013-02-03 05:02:00,
2013-02-02 21:11:00,54.0,35.0,30.19,West,271,2.0,3.0,48,0.00,,,0.00,,2013-02-03 05:11:00,
2013-02-02 21:22:00,54.0,35.0,30.18,North,0,0.0,2.0,49,0.00,,,0.00,,2013-02-03 05:22:00,
2013-02-02 21:31:00,54.0,36.0,30.18,North,0,0.0,0.0,51,0.00,,,0.00,,2013-02-03 05:31:00,
2013-02-02 21:41:00,54.0,36.0,30.18,North,0,0.0,0.0,51,0.00,,,0.00,,2013-02-03 05:41:00,
2013-02-02 21:52:00,54.0,36.0,30.17,West,271,2.0,3.0,51,0.00,,,0.00,,2013-02-03 05:52:00,
2013-02-02 22:02:00,54.0,33.0,30.17,West,271,2.0,3.0,45,0.00,,,0.00,,2013-02-03 06:02:00,
2013-02-02 22:11:00,54.0,33.0,30.17,West,271,2.0,3.0,45,0.00,,,0.00,,2013-02-03 06:11:00,
2013-02-02 22:21:00,54.0,34.0,30.17,West,271,2.0,4.0,47,0.00,,,0.00,,2013-02-03 06:21:00,
2013-02-02 22:31:00,54.0,35.0,30.16,West,271,2.0,4.0,48,0.00,,,0.00,,2013-02-03 06:31:00,
2013-02-02 22:41:00,54.0,35.0,30.16,West,271,2.0,4.0,48,0.00,,,0.00,,2013-02-03 06:41:00,
2013-02-02 22:52:00,54.0,34.0,30.16,West,270,3.0,5.0,46,0.00,,,0.00,,2013-02-03 06:52:00,
2013-02-02 23:01:00,54.0,36.0,30.16,West,271,1.0,5.0,50,0.00,,,0.00,,2013-02-03 07:01:00,
2013-02-02 23:11:00,54.0,36.0,30.16,West,271,1.0,5.0,50,0.00,,,0.00,,2013-02-03 07:11:00,
2013-02-02 23:21:00,53.0,34.0,30.16,North,0,0.0,2.0,48,0.00,,,0.00,,2013-02-03 07:21:00,
2013-02-02 23:31:00,53.0,35.0,30.16,North,0,0.0,0.0,51,0.00,,,0.00,,2013-02-03 07:31:00,
2013-02-02 23:41:00,53.0,35.0,30.16,North,0,0.0,0.0,51,0.00,,,0.00,,2013-02-03 07:41:00,
2013-02-02 23:52:00,52.0,33.0,30.16,North,0,0.0,0.0,49,0.00,,,0.00,,2013-02-03 07:52:00,